Location: Unspecified
(58.7730°N, 5.8460°E)
Time: 21:24:37
(UTC+01:00)

CZ-3 Stage 3 - Visible Passes

Search period start: 22 January 2017 00:00
Search period end: 01 February 2017 00:00
Orbit: 434 x 34768 km, 30.5° (Epoch: 21 January)

Date Brightness Start Highest point End Pass type
(mag) Time Alt. Az. Time Alt. Az. Time Alt. Az.
22 Jan 9.8 21:13:55 10° ENE 01:09:02 24° E 03:02:00 10° E visible
23 Jan 9.2 05:46:32 16° WSW 08:01:48 29° W 13:35:03 10° W visible
24 Jan 9.2 02:20:17 36° S 05:36:57 53° SSW 10:35:32 10° S visible
24 Jan 9.3 22:54:01 25° ESE 04:21:23 51° SE 06:57:54 10° SE visible
25 Jan 9.7 21:00:39 10° ENE 00:58:07 24° E 02:52:27 10° E visible
26 Jan 9.2 05:44:32 18° WSW 07:51:07 29° W 13:23:33 10° W visible
27 Jan 9.2 02:18:06 39° S 05:23:26 53° SSW 10:26:22 10° S visible
27 Jan 9.4 22:51:37 27° ESE 04:09:18 51° SE 06:48:51 10° SE visible
28 Jan 9.7 20:47:28 10° ENE 00:47:11 24° E 02:42:49 10° E visible
29 Jan 9.2 05:41:50 20° WSW 07:40:25 30° W 13:11:54 10° W visible
30 Jan 8.2 02:15:10 41° S 05:09:57 54° SSW 10:17:09 10° S visible
30 Jan 8.1 22:48:28 29° ESE 03:57:12 51° SE 06:39:45 10° SE visible
